Regional Weather Roundup
Issued by NWS Memphis, TN

Home | Current Version | Previous Version | Text Only | Print | Product List | Glossary On
Versions: 1 2 3 4 5 6 7 8 9 10 11 12 13 14 15 16 17 18 19 20 21 22 23 24 25 26 27 28 29 30 31 32 33 34 35 36 37 38 39 40 41 42 43 44 45 46 47 48 49 50
000
ASUS44 KMEG 280510
RWRMEG
MEMPHIS CWA HOURLY WEATHER ROUNDUP
NATIONAL WEATHER SERVICE MEMPHIS TN
1100 PM CST SAT DEC 27 2014

...WEST TENNESSEE...

CITY           SKY/WX    TMP DP  RH WIND       PRES   REMARKS
MEMPHIS INTL   LGT RAIN  49  46  90 N7        30.12F
NWS MEMPHIS      N/A     47 N/A N/A MISG        N/A
JACKSON        CLOUDY    46  45  93 NE6       30.12S
LEXINGTON      CLOUDY    48  48 100 CALM      30.10R
SAVANNAH       CLOUDY    52  52 100 CALM      30.11R
DYERSBURG      CLOUDY    45  34  65 NW5       30.16R
UNION CITY     CLOUDY    43  43 100 NW10      30.12R
PARIS          MOCLDY    43  43 100 NE9       30.10F
HUNTINGDON     CLOUDY    44  43  97 NE5       30.13R


...EASTERN ARKANSAS...

CITY           SKY/WX    TMP DP  RH WIND       PRES   REMARKS
JONESBORO      CLOUDY    42  41  96 N7        30.17S
WEST MEMPHIS   LGT RAIN  47  47 100 N7        30.12F
BATESVILLE     CLOUDY    37  34  87 NW7       30.21R WCI  32
NEWPORT        CLOUDY    41  38  89 NW15      30.21R
WALNUT RIDGE   CLOUDY    41  36  81 N13       30.19R
BLYTHEVILLE    CLOUDY    43  40  89 N21G26    30.15S
SEARCY         CLOUDY    40  38  93 N10       30.23R WCI  33
STUTTGART      CLOUDY    45  39  81 N16       30.18S
PINE BLUFF     CLOUDY    44  41  89 NW16G23   30.19R
MONTICELLO     CLOUDY    47  45  93 NW5       30.14R


...NORTH MISSISSIPPI...

CITY           SKY/WX    TMP DP  RH WIND       PRES   REMARKS
TUPELO         RAIN      54  52  93 S8        30.05F
OXFORD         CLOUDY    50  50 100 N9        30.10S FOG
OLIVE BRANCH   CLOUDY    46 N/A N/A N7        30.13S
TUNICA         CLOUDY    46  46 100 NE7       30.12F
CLARKSDALE     CLOUDY    48  48 100 N14       30.12F
CORINTH        DRIZZLE   54  52  94 CALM      30.08F
GRENADA        RAIN      55  54  94 CALM      30.08R
GREENWOOD      RAIN      55  53  93 N13       30.08S
COLUMBUS       CLOUDY    54  54 100 SE3       30.06F
STARKVILLE     LGT RAIN  52  52 100 CALM      30.05F
GOLDEN TRIANGL CLOUDY    54  52  94 SE6       30.05F


...SOUTHEAST MISSOURI...

CITY           SKY/WX    TMP DP  RH WIND       PRES   REMARKS
WEST PLAINS    CLOUDY    33  30  88 N8        30.20F WCI  26
POPLAR BLUFF   CLOUDY    40  35  83 N12       30.17S WCI  33
CAPE GIRARDEAU CLOUDY    39  37  92 N12       30.19R WCI  32


...NORTHWEST ALABAMA...

CITY           SKY/WX    TMP DP  RH WIND       PRES   REMARKS
MUSCLE SHOALS  LGT RAIN  54  51  90 W3        30.10R


...MIDDLE TENNESSEE...

CITY           SKY/WX    TMP DP  RH WIND       PRES   REMARKS
NASHVILLE      CLOUDY    50  48  93 N3        30.10F FOG
CLARKSVILLE    CLOUDY    46  44  93 N13       30.12R
COLUMBIA       CLOUDY   N/A N/A N/A CALM      30.08S


...WESTERN KENTUCKY...

CITY           SKY/WX    TMP DP  RH WIND       PRES   REMARKS
PADUCAH        CLOUDY    40  38  93 N10       30.14R WCI  33
FORT CAMPBELL  LGT RAIN  45  45 100 N6        30.11S


...CENTRAL ARKANSAS...

CITY           SKY/WX    TMP DP  RH WIND       PRES   REMARKS
LITTLE ROCK    CLOUDY    42  37  82 NW12      30.22R


SKY/WX REPORTED AS FAIR MEANS FEW OR NO CLOUDS BELOW
12 THOUSAND FEET.




USA.gov is the U.S. government's official web portal to all federal, state and local government web resources and services.